Laurens, SC

1:49 PM EDT on April 27, 2017 (GMT -0400)
Laurens

Weather History for KLUX - December, 2012

Change the Weather History Date:

Wednesday, December 12, 2012

  Actual Average (KGSP) Record (KGSP)
Temperature  
Mean Temperature 44 °F -  
Max Temperature 46 °F 54 °F 78 °F (2007)
Min Temperature 41 °F 34 °F 9 °F (1962)
Degree Days  
Heating Degree Days 22    
Moisture  
Dew Point 37 °F    
Average Humidity 80    
Maximum Humidity 100    
Minimum Humidity 61    
Precipitation  
Precipitation 0.11 in - - ()
Sea Level Pressure  
Sea Level Pressure 30.22 in    
Wind  
Wind Speed 7 mph (NE)    
Max Wind Speed 14 mph    
Max Gust Speed 24 mph    
Visibility 10 miles    
Events Rain    
Averages and records for this station are not official NWS values.
T = Trace of Precipitation, MM = Missing Value Source: NWS Daily Summary

Daily Weather History Graph

Daily Weather History Graph

Search for Another Location

Airport or City:

Trip Planner

Search our weather history database for the weather conditions in past years. The results will help you decide how hot, cold, wet, or windy it might be!

Date:

Astronomy

Dec. 12, 2012 Rise Set
Actual Time 7:25 AM EST 5:18 PM EST
Civil Twilight 6:57 AM EST 5:46 PM EST
Nautical Twilight 6:26 AM EST 6:17 PM EST
Astronomical Twilight 5:55 AM EST 6:48 PM EST
Moon 6:29 AM EST (12/12) 4:53 PM EST (12/12)
Length of Visible Light 10h 48m
Length of Day
9h 52m
Waning Crescent, 1% of the Moon is Illuminated
Dec 12
Waning Crescent
Dec 13
New
Dec 20
First Quarter
Dec 28
Full
Jan 4
Last Quarter

Hourly Weather History & Observations

Time (EST) Temp. Windchill Dew Point Humidity Pressure Visibility Wind Dir Wind Speed Gust Speed Precip Events Conditions
12:15 AM 44.6 °F 41.4 °F 35.6 °F 71% 30.14 in 10.0 mi NNE 5.8 mph - N/A   Clear
12:35 AM 44.6 °F 40.2 °F 35.6 °F 71% 30.13 in 10.0 mi NNE 8.1 mph - N/A   Clear
12:55 AM 44.6 °F 40.7 °F 35.6 °F 71% 30.14 in 10.0 mi NNE 6.9 mph - N/A   Clear
1:15 AM 44.6 °F 40.7 °F 35.6 °F 71% 30.14 in 10.0 mi NNE 6.9 mph - N/A   Clear
1:35 AM 44.6 °F 41.4 °F 33.8 °F 66% 30.14 in 10.0 mi NNE 5.8 mph - N/A   Clear
1:55 AM 44.6 °F 40.7 °F 33.8 °F 66% 30.14 in 10.0 mi NNE 6.9 mph - N/A   Clear
2:15 AM 44.6 °F 42.2 °F 33.8 °F 66% 30.15 in 10.0 mi NNE 4.6 mph - N/A   Clear
2:55 AM 42.8 °F 38.6 °F 33.8 °F 70% 30.16 in 10.0 mi NNE 6.9 mph - N/A   Clear
3:15 AM 42.8 °F 38.6 °F 32.0 °F 66% 30.16 in 10.0 mi NNE 6.9 mph - N/A   Clear
3:55 AM 42.8 °F 39.3 °F 32.0 °F 66% 30.18 in 10.0 mi NNE 5.8 mph - N/A   Clear
4:15 AM 42.8 °F 39.3 °F 32.0 °F 66% 30.17 in 10.0 mi NNE 5.8 mph - N/A   Clear
4:35 AM 42.8 °F 37.5 °F 32.0 °F 66% 30.17 in 10.0 mi NNE 9.2 mph - N/A   Scattered Clouds
4:55 AM 42.8 °F 38.6 °F 32.0 °F 66% 30.18 in 10.0 mi NNE 6.9 mph - N/A   Mostly Cloudy
5:15 AM 42.8 °F 38.6 °F 32.0 °F 66% 30.18 in 10.0 mi NNE 6.9 mph - N/A   Scattered Clouds
5:35 AM 42.8 °F 38.6 °F 32.0 °F 66% 30.18 in 10.0 mi NE 6.9 mph - N/A   Mostly Cloudy
5:55 AM 42.8 °F 40.1 °F 32.0 °F 66% 30.19 in 10.0 mi NNE 4.6 mph - N/A   Overcast
6:15 AM 42.8 °F 38.6 °F 32.0 °F 66% 30.19 in 10.0 mi NNE 6.9 mph - N/A   Overcast
6:35 AM 42.8 °F 37.5 °F 32.0 °F 66% 30.19 in 10.0 mi NNE 9.2 mph - N/A   Overcast
6:55 AM 42.8 °F 37.5 °F 32.0 °F 66% 30.18 in 10.0 mi NNE 9.2 mph - N/A   Overcast
7:15 AM 42.8 °F 37.5 °F 32.0 °F 66% 30.20 in 10.0 mi NNE 9.2 mph - N/A   Mostly Cloudy
7:35 AM 42.8 °F 37.5 °F 32.0 °F 66% 30.20 in 10.0 mi NNE 9.2 mph - N/A   Overcast
7:55 AM 42.8 °F 37.5 °F 32.0 °F 66% 30.20 in 10.0 mi NNE 9.2 mph - N/A   Mostly Cloudy
8:35 AM 42.8 °F 37.5 °F 32.0 °F 66% 30.21 in 10.0 mi NNE 9.2 mph - N/A   Clear
8:55 AM 42.8 °F 38.0 °F 32.0 °F 66% 30.22 in 10.0 mi NE 8.1 mph - N/A   Clear
9:15 AM 42.8 °F 37.0 °F 32.0 °F 66% 30.23 in 10.0 mi NE 10.4 mph - N/A   Clear
9:35 AM 44.6 °F 39.7 °F 32.0 °F 61% 30.23 in 10.0 mi NNE 9.2 mph - N/A   Scattered Clouds
9:55 AM 44.6 °F 39.7 °F 33.8 °F 66% 30.24 in 10.0 mi NE 9.2 mph - N/A   Overcast
10:15 AM 44.6 °F 39.2 °F 33.8 °F 66% 30.24 in 10.0 mi NNE 10.4 mph - N/A   Overcast
10:35 AM 46.4 °F 42.4 °F 33.8 °F 62% 30.25 in 10.0 mi NNE 8.1 mph 18.4 mph N/A   Overcast
10:55 AM 46.4 °F 41.5 °F 33.8 °F 62% 30.25 in 10.0 mi NE 10.4 mph 19.6 mph N/A   Overcast
11:15 AM 46.4 °F 41.9 °F 33.8 °F 62% 30.26 in 10.0 mi ENE 9.2 mph - N/A   Overcast
11:55 AM 46.4 °F 42.4 °F 35.6 °F 66% 30.25 in 10.0 mi NNE 8.1 mph - N/A Rain Light Rain
12:15 PM 44.6 °F 40.7 °F 37.4 °F 76% 30.25 in 10.0 mi NE 6.9 mph - N/A Rain Light Rain
12:35 PM 44.6 °F 42.2 °F 39.2 °F 81% 30.26 in 7.0 mi ENE 4.6 mph - N/A Rain Light Rain
12:55 PM 42.8 °F 38.0 °F 41.0 °F 93% 30.23 in 7.0 mi NNE 8.1 mph - 0.01 in Rain Light Rain
1:15 PM 42.8 °F 40.1 °F 42.8 °F 100% 30.23 in 5.0 mi NNE 4.6 mph - 0.01 in Rain Rain
1:35 PM 42.8 °F 39.3 °F 42.8 °F 100% 30.23 in 7.0 mi ENE 5.8 mph - 0.02 in Rain Rain
1:55 PM 42.8 °F 38.6 °F 42.8 °F 100% 30.22 in 7.0 mi NNE 6.9 mph - 0.02 in   Drizzle
2:15 PM 42.8 °F 39.3 °F 42.8 °F 100% 30.21 in 7.0 mi NNE 5.8 mph - N/A   Overcast
2:35 PM 42.8 °F 37.5 °F 42.8 °F 100% 30.21 in 10.0 mi ENE 9.2 mph - N/A   Overcast
2:55 PM 42.8 °F 38.6 °F 42.8 °F 100% 30.21 in 10.0 mi NE 6.9 mph - N/A   Overcast
3:15 PM 42.8 °F 38.6 °F 41.0 °F 93% 30.22 in 10.0 mi NE 6.9 mph - N/A   Overcast
3:35 PM 42.8 °F 38.6 °F 41.0 °F 93% 30.22 in 10.0 mi NE 6.9 mph - N/A   Overcast
3:55 PM 42.8 °F 40.1 °F 41.0 °F 93% 30.23 in 10.0 mi NE 4.6 mph - N/A   Overcast
4:15 PM 42.8 °F 37.5 °F 41.0 °F 93% 30.23 in 10.0 mi NE 9.2 mph - N/A   Overcast
4:35 PM 42.8 °F 38.6 °F 41.0 °F 93% 30.23 in 10.0 mi ENE 6.9 mph - N/A   Overcast
4:55 PM 42.8 °F 41.1 °F 41.0 °F 93% 30.25 in 10.0 mi NNE 3.5 mph - N/A   Overcast
5:15 PM 42.8 °F 41.1 °F 41.0 °F 93% 30.24 in 10.0 mi NE 3.5 mph - N/A Rain Light Rain
5:35 PM 42.8 °F 40.1 °F 42.8 °F 100% 30.24 in 10.0 mi NNE 4.6 mph - N/A   Drizzle
5:55 PM 42.8 °F 40.1 °F 42.8 °F 100% 30.25 in 10.0 mi ENE 4.6 mph - N/A   Drizzle
6:15 PM 42.8 °F 38.6 °F 42.8 °F 100% 30.24 in 10.0 mi NE 6.9 mph - N/A   Light Drizzle
6:35 PM 42.8 °F 40.1 °F 42.8 °F 100% 30.24 in 10.0 mi ENE 4.6 mph - N/A   Overcast
6:55 PM 42.8 °F 38.6 °F 42.8 °F 100% 30.25 in 10.0 mi NE 6.9 mph - N/A   Overcast
7:15 PM 42.8 °F 40.1 °F 42.8 °F 100% 30.25 in 10.0 mi NNE 4.6 mph - N/A   Overcast
7:35 PM 42.8 °F 40.1 °F 42.8 °F 100% 30.26 in 10.0 mi ENE 4.6 mph - N/A   Overcast
7:55 PM 42.8 °F 38.0 °F 41.0 °F 93% 30.25 in 10.0 mi NE 8.1 mph - N/A   Overcast
8:15 PM 42.8 °F 38.6 °F 39.2 °F 87% 30.25 in 10.0 mi NE 6.9 mph - N/A   Overcast
8:35 PM 42.8 °F 38.6 °F 37.4 °F 81% 30.27 in 10.0 mi NE 6.9 mph - N/A   Overcast
8:55 PM 42.8 °F 38.0 °F 37.4 °F 81% 30.26 in 10.0 mi NNE 8.1 mph - N/A   Overcast
9:15 PM 42.8 °F 39.3 °F 35.6 °F 76% 30.27 in 10.0 mi NNE 5.8 mph - N/A   Overcast
9:35 PM 42.8 °F 37.0 °F 35.6 °F 76% 30.26 in 10.0 mi NE 10.4 mph - N/A   Overcast
9:55 PM 42.8 °F 38.6 °F 35.6 °F 76% 30.25 in 10.0 mi NE 6.9 mph - N/A   Overcast
10:15 PM 42.8 °F 39.3 °F 35.6 °F 76% 30.32 in 10.0 mi NW 5.8 mph - N/A   Overcast
10:35 PM 42.8 °F 39.3 °F 35.6 °F 76% 30.32 in 10.0 mi NNE 5.8 mph - N/A Rain Rain
10:55 PM 41.0 °F 33.5 °F 39.2 °F 93% 30.25 in 4.0 mi ENE 13.8 mph 24.2 mph 0.06 in Rain Heavy Rain
11:15 PM 41.0 °F 34.7 °F 41.0 °F 100% 30.27 in 7.0 mi NNE 10.4 mph 18.4 mph 0.02 in Rain Light Rain
11:35 PM 41.0 °F 34.7 °F 41.0 °F 100% 30.29 in 10.0 mi NNE 10.4 mph - 0.02 in   Light Drizzle
11:55 PM 41.0 °F 34.3 °F 41.0 °F 100% 30.27 in 10.0 mi NNE 11.5 mph 17.3 mph 0.02 in   Overcast